Cedar City, UT

1:32 AM MDT on July 27, 2017 (GMT -0600)
Cedar City Regional

Weather History for KCDC - May, 2013

Change the Weather History Date:

Friday, May 24, 2013

  Actual Average Record
Temperature  
Mean Temperature 58 °F 58 °F  
Max Temperature 78 °F 75 °F 90 °F (2001)
Min Temperature 38 °F 41 °F 32 °F (1980)
Degree Days  
Heating Degree Days 7 7  
Month to date heating degree days 245 248  
Since 1 July heating degree days 6078 6134  
Cooling Degree Days 0 0  
Month to date cooling degree days 2 0  
Year to date cooling degree days 2 0  
Growing Degree Days 7 (Base 50)    
Moisture  
Dew Point 19 °F    
Average Humidity 29    
Maximum Humidity 48    
Minimum Humidity 9    
Precipitation  
Precipitation 0.00 in 0.03 in 0.50 in (1997)
Month to date precipitation 0.33 0.59  
Year to date precipitation 4.05 4.86  
Sea Level Pressure  
Sea Level Pressure 29.86 in    
Wind  
Wind Speed 7 mph (SSW)    
Max Wind Speed 24 mph    
Max Gust Speed 33 mph    
Visibility 10 miles    
Events      
T = Trace of Precipitation, MM = Missing Value Source: NWS Daily Summary

Daily Weather History Graph

Daily Weather History Graph

Search for Another Location

Airport or City:

Trip Planner

Search our weather history database for the weather conditions in past years. The results will help you decide how hot, cold, wet, or windy it might be!

Date:

Astronomy

May. 24, 2013 Rise Set
Actual Time 6:16 AM MDT 8:42 PM MDT
Civil Twilight 5:45 AM MDT 9:13 PM MDT
Nautical Twilight 5:08 AM MDT 9:50 PM MDT
Astronomical Twilight 4:27 AM MDT 10:31 PM MDT
Moon 8:29 PM MDT (5/24) 5:50 AM MDT (5/24)
Length of Visible Light 15h 27m
Length of Day
14h 26m
Full, 100% of the Moon is Illuminated
May 24
Full
May 24
Full
May 31
Last Quarter
Jun 8
New
Jun 16
First Quarter

Hourly Weather History & Observations

Time (MDT) Temp. Windchill Dew Point Humidity Pressure Visibility Wind Dir Wind Speed Gust Speed Precip Events Conditions
12:53 AM 51.1 °F - 16.0 °F 25% 29.80 in 10.0 mi South 8.1 mph - N/A   Clear
1:53 AM 48.0 °F - 18.0 °F 30% 29.81 in 10.0 mi SE 6.9 mph - N/A   Clear
2:53 AM 52.0 °F - 17.1 °F 25% 29.79 in 10.0 mi SSE 9.2 mph - N/A   Clear
3:53 AM 37.9 °F 33.5 °F 19.9 °F 48% 29.87 in 10.0 mi West 5.8 mph - N/A   Clear
4:53 AM 39.9 °F 36.7 °F 21.0 °F 47% 29.88 in 10.0 mi South 4.6 mph - N/A   Clear
5:53 AM 37.9 °F - 21.0 °F 51% 29.91 in 10.0 mi Calm Calm - N/A   Clear
6:53 AM 39.9 °F - 21.9 °F 49% 29.93 in 10.0 mi Calm Calm - N/A   Clear
7:53 AM 46.9 °F - 24.1 °F 41% 29.93 in 10.0 mi Calm Calm - N/A   Clear
8:53 AM 51.1 °F - 23.0 °F 33% 29.94 in 10.0 mi Calm Calm - N/A   Clear
9:53 AM 55.0 °F - 21.9 °F 28% 29.94 in 10.0 mi Calm Calm - N/A   Clear
10:53 AM 61.0 °F - 23.0 °F 23% 29.91 in 10.0 mi Variable 3.5 mph - N/A   Clear
11:53 AM 64.9 °F - 21.9 °F 19% 29.89 in 10.0 mi Variable 3.5 mph - N/A   Clear
12:53 PM 73.9 °F - 15.1 °F 11% 29.86 in 10.0 mi SW 19.6 mph 32.2 mph N/A   Clear
1:53 PM 75.0 °F - 15.1 °F 10% 29.85 in 10.0 mi WSW 11.5 mph 23.0 mph N/A   Clear
2:53 PM 75.9 °F - 15.1 °F 10% 29.82 in 10.0 mi SW 9.2 mph 25.3 mph N/A   Clear
3:53 PM 77.0 °F - 15.1 °F 10% 29.84 in 10.0 mi SW 16.1 mph 25.3 mph N/A   Clear
4:53 PM 77.0 °F - 16.0 °F 10% 29.82 in 10.0 mi SW 19.6 mph 25.3 mph N/A   Clear
5:53 PM 75.9 °F - 17.1 °F 11% 29.82 in 10.0 mi SW 15.0 mph 26.5 mph N/A   Clear
6:53 PM 72.0 °F - 18.0 °F 13% 29.81 in 10.0 mi SW 16.1 mph 26.5 mph N/A   Clear
7:53 PM 69.1 °F - 18.0 °F 14% 29.81 in 10.0 mi SW 11.5 mph - N/A   Clear
8:53 PM 64.9 °F - 16.0 °F 15% 29.82 in 10.0 mi SSW 8.1 mph - N/A   Clear
9:53 PM 59.0 °F - 19.0 °F 21% 29.84 in 10.0 mi Calm Calm - N/A   Clear
10:53 PM 57.9 °F - 18.0 °F 21% 29.83 in 10.0 mi Calm Calm - N/A   Clear
11:53 PM 54.0 °F - 21.0 °F 28% 29.84 in 10.0 mi SE 5.8 mph - N/A   Clear